カタログに戻る

COSMOS 2346

運用中軍事PO
NORAD 24953·PAYLOAD·🇷🇺 Russia

打ち上げ Sep 23, 1997 から Plesetsk Cosmodrome

Loading…

次のパス (今後24時間)

TLE

最新Source: Space-Track

元期: Sep 14, 2026, 13:14 UTC

1 24953U 97052A   26257.55168295  .00000033  00000-0  16501-4 0  9992
2 24953  82.9185 280.2010 0040927  73.1563  90.5013 13.79830382458692

AllMySatでCOSMOS 2346をリアルタイム追跡

Download on the App Store